Location: Palmerston North
(40.3500°S, 175.6170°E)
Time: 12:45:22
(UTC+13:00)

ISS - Pass Details

Date: 31 January 2019
Orbit: 403 x 411 km, 51.6° (Epoch: 22 February)

Event Time Altitude Azimuth Distance (km) Brightness Sun altitude
Exits shadow 04:36:03 38° 13° (NNE) 648 -3.1 -17.8°
Maximum altitude 04:36:37 43° 43° (NE) 600 -3.1 -17.7°
Drops below altitude 10° 04:39:49 10° 115° (ESE) 1,497 0.2 -17.3°
Sets 04:41:59 0° 122° (ESE) 2,364 1.7 -17.0°
